Location: Buckhorn Peak
(37.6641°N, 120.1241°W)
Time: 01:42:51
(UTC+00:00)

BlueWalker 3 - Pass Details

Date: 22 December 2025
Orbit: 452 x 463 km, 53.2° (Epoch: 13 January)

Event Time Altitude Azimuth Distance (km) Brightness Sun altitude
Exits shadow 12:52:40 26° 134° (SE) 928 3.7 -26.8°
Maximum altitude 12:52:50 26° 129° (SE) 925 3.8 -26.8°
Drops below altitude 10° 12:55:51 10° 71° (ENE) 1,588 5.2 -26.2°
Sets 12:58:13 0° 59° (ENE) 2,467 6.1 -25.7°
